Time,TemperatureF,DewpointF,PressureIn,WindDirection,WindDirectionDegrees,WindSpeedMPH,WindSpeedGustMPH,Humidity,HourlyPrecipIn,Conditions,Clouds,dailyrainin,SoftwareType,DateUTC
2013-01-16 00:22:00,49.0,37.0,30.42,North,0,0.0,-999.0,64,0.00,,,-99.99,,2013-01-16 08:22:00,
2013-01-16 00:32:00,49.0,37.0,30.42,North,0,0.0,-999.0,64,0.00,,,-99.99,,2013-01-16 08:32:00,
2013-01-16 00:42:00,49.0,37.0,30.42,North,0,0.0,-999.0,64,0.00,,,-99.99,,2013-01-16 08:42:00,
2013-01-16 00:51:00,49.0,38.0,30.41,North,0,0.0,-999.0,66,0.00,,,-99.99,,2013-01-16 08:51:00,
2013-01-16 01:22:00,49.0,38.0,30.41,North,0,0.0,-999.0,66,0.00,,,-99.99,,2013-01-16 09:22:00,
2013-01-16 01:32:00,49.0,38.0,30.41,North,0,0.0,-999.0,66,0.00,,,-99.99,,2013-01-16 09:32:00,
2013-01-16 01:42:00,49.0,38.0,30.41,North,0,0.0,-999.0,66,0.00,,,-99.99,,2013-01-16 09:42:00,
2013-01-16 01:51:00,47.0,35.0,30.41,North,0,0.0,-999.0,64,0.00,,,-99.99,,2013-01-16 09:51:00,
2013-01-16 02:22:00,47.0,35.0,30.41,North,0,0.0,-999.0,64,0.00,,,-99.99,,2013-01-16 10:22:00,
2013-01-16 02:32:00,47.0,35.0,30.41,North,0,0.0,-999.0,64,0.00,,,-99.99,,2013-01-16 10:32:00,
2013-01-16 02:42:00,47.0,35.0,30.41,North,0,0.0,-999.0,64,0.00,,,-99.99,,2013-01-16 10:42:00,
2013-01-16 02:51:00,47.0,35.0,30.42,North,0,0.0,-999.0,64,0.00,,,-99.99,,2013-01-16 10:51:00,
2013-01-16 03:22:00,47.0,35.0,30.42,North,0,0.0,-999.0,64,0.00,,,-99.99,,2013-01-16 11:22:00,
2013-01-16 03:32:00,47.0,35.0,30.42,North,0,0.0,-999.0,64,0.00,,,-99.99,,2013-01-16 11:32:00,
2013-01-16 03:42:00,47.0,35.0,30.42,North,0,0.0,-999.0,64,0.00,,,-99.99,,2013-01-16 11:42:00,
2013-01-16 03:51:00,47.0,35.0,30.41,North,0,0.0,-999.0,62,0.00,,,-99.99,,2013-01-16 11:51:00,
2013-01-16 04:22:00,47.0,35.0,30.41,North,0,0.0,-999.0,62,0.00,,,-99.99,,2013-01-16 12:22:00,
2013-01-16 04:33:00,47.0,35.0,30.41,North,0,0.0,-999.0,62,0.00,,,-99.99,,2013-01-16 12:33:00,
2013-01-16 04:42:00,47.0,35.0,30.41,North,0,0.0,-999.0,62,0.00,,,-99.99,,2013-01-16 12:42:00,
2013-01-16 04:51:00,46.0,33.0,30.41,North,0,0.0,-999.0,61,0.00,,,-99.99,,2013-01-16 12:51:00,
2013-01-16 05:22:00,46.0,33.0,30.41,North,0,0.0,-999.0,61,0.00,,,-99.99,,2013-01-16 13:22:00,
2013-01-16 05:33:00,46.0,33.0,30.41,North,0,0.0,-999.0,61,0.00,,,-99.99,,2013-01-16 13:33:00,
2013-01-16 05:42:00,46.0,33.0,30.41,North,0,0.0,-999.0,61,0.00,,,-99.99,,2013-01-16 13:42:00,
2013-01-16 05:51:00,47.0,38.0,30.41,North,0,0.0,-999.0,70,0.00,,,-99.99,,2013-01-16 13:51:00,
2013-01-16 06:22:00,47.0,38.0,30.41,North,0,0.0,-999.0,70,0.00,,,-99.99,,2013-01-16 14:22:00,
2013-01-16 06:32:00,47.0,38.0,30.41,North,0,0.0,-999.0,70,0.00,,,-99.99,,2013-01-16 14:32:00,
2013-01-16 06:42:00,47.0,38.0,30.41,North,0,0.0,-999.0,70,0.00,,,-99.99,,2013-01-16 14:42:00,
2013-01-16 06:51:00,46.0,37.0,30.41,North,0,0.0,-999.0,71,0.00,,,-99.99,,2013-01-16 14:51:00,
2013-01-16 07:22:00,46.0,37.0,30.41,North,0,0.0,-999.0,71,0.00,,,-99.99,,2013-01-16 15:22:00,
2013-01-16 07:33:00,46.0,37.0,30.41,North,0,0.0,-999.0,71,0.00,,,-99.99,,2013-01-16 15:33:00,
2013-01-16 07:43:00,46.0,37.0,30.41,North,0,0.0,-999.0,71,0.00,,,-99.99,,2013-01-16 15:43:00,
2013-01-16 07:51:00,47.0,35.0,30.41,North,0,0.0,-999.0,62,0.00,,,-99.99,,2013-01-16 15:51:00,
2013-01-16 08:22:00,47.0,35.0,30.41,North,0,0.0,-999.0,62,0.00,,,-99.99,,2013-01-16 16:22:00,
2013-01-16 08:32:00,47.0,35.0,30.41,North,0,0.0,-999.0,62,0.00,,,-99.99,,2013-01-16 16:32:00,
2013-01-16 08:42:00,47.0,35.0,30.41,North,0,0.0,-999.0,62,0.00,,,-99.99,,2013-01-16 16:42:00,
2013-01-16 08:51:00,49.0,35.0,30.42,North,0,0.0,-999.0,59,0.00,,,-99.99,,2013-01-16 16:51:00,
2013-01-16 09:22:00,49.0,35.0,30.42,North,0,0.0,-999.0,59,0.00,,,-99.99,,2013-01-16 17:22:00,
2013-01-16 09:33:00,49.0,35.0,30.42,North,0,0.0,-999.0,59,0.00,,,-99.99,,2013-01-16 17:33:00,
2013-01-16 09:43:00,49.0,35.0,30.42,North,0,0.0,-999.0,59,0.00,,,-99.99,,2013-01-16 17:43:00,
2013-01-16 10:51:00,56.0,29.0,30.38,North,0,0.0,-999.0,35,0.00,,,-99.99,,2013-01-16 18:51:00,
2013-01-16 11:23:00,56.0,29.0,30.38,North,0,0.0,-999.0,35,0.00,,,-99.99,,2013-01-16 19:23:00,
2013-01-16 11:33:00,56.0,29.0,30.38,North,0,0.0,-999.0,35,0.00,,,-99.99,,2013-01-16 19:33:00,
2013-01-16 11:42:00,56.0,29.0,30.38,North,0,0.0,-999.0,35,0.00,,,-99.99,,2013-01-16 19:42:00,
2013-01-16 11:51:00,59.0,30.0,30.32,North,0,0.0,-999.0,33,0.00,,,-99.99,,2013-01-16 19:51:00,
2013-01-16 12:23:00,59.0,30.0,30.32,North,0,0.0,-999.0,33,0.00,,,-99.99,,2013-01-16 20:23:00,
2013-01-16 12:33:00,59.0,30.0,30.32,North,0,0.0,-999.0,33,0.00,,,-99.99,,2013-01-16 20:33:00,
2013-01-16 12:42:00,59.0,30.0,30.32,North,0,0.0,-999.0,33,0.00,,,-99.99,,2013-01-16 20:42:00,
2013-01-16 12:51:00,60.0,34.0,30.28,North,0,0.0,-999.0,37,0.00,,,-99.99,,2013-01-16 20:51:00,
2013-01-16 13:22:00,60.0,34.0,30.28,North,0,0.0,-999.0,37,0.00,,,-99.99,,2013-01-16 21:22:00,
2013-01-16 13:33:00,60.0,34.0,30.28,North,0,0.0,-999.0,37,0.00,,,-99.99,,2013-01-16 21:33:00,
2013-01-16 13:42:00,60.0,34.0,30.28,North,0,0.0,-999.0,37,0.00,,,-99.99,,2013-01-16 21:42:00,
2013-01-16 13:51:00,59.0,36.0,30.25,West,270,4.0,-999.0,42,0.00,,,-99.99,,2013-01-16 21:51:00,
2013-01-16 14:22:00,59.0,36.0,30.25,West,270,4.0,-999.0,42,0.00,,,-99.99,,2013-01-16 22:22:00,
2013-01-16 14:33:00,59.0,36.0,30.25,West,270,4.0,-999.0,42,0.00,,,-99.99,,2013-01-16 22:33:00,
2013-01-16 14:43:00,59.0,36.0,30.25,West,270,4.0,-999.0,42,0.00,,,-99.99,,2013-01-16 22:43:00,
2013-01-16 14:51:00,58.0,42.0,30.23,NW,310,9.0,-999.0,55,0.00,,,-99.99,,2013-01-16 22:51:00,
2013-01-16 15:22:00,58.0,42.0,30.23,NW,310,9.0,-999.0,55,0.00,,,-99.99,,2013-01-16 23:22:00,
2013-01-16 15:32:00,58.0,42.0,30.23,NW,310,9.0,-999.0,55,0.00,,,-99.99,,2013-01-16 23:32:00,
2013-01-16 15:42:00,58.0,42.0,30.23,NW,310,9.0,-999.0,55,0.00,,,-99.99,,2013-01-16 23:42:00,
2013-01-16 15:51:00,59.0,45.0,30.23,WNW,300,9.0,-999.0,60,0.00,,,-99.99,,2013-01-16 23:51:00,
2013-01-16 16:22:00,59.0,45.0,30.23,WNW,300,9.0,-999.0,60,0.00,,,-99.99,,2013-01-17 00:22:00,
2013-01-16 16:32:00,59.0,45.0,30.23,WNW,300,9.0,-999.0,60,0.00,,,-99.99,,2013-01-17 00:32:00,
2013-01-16 16:42:00,59.0,45.0,30.23,WNW,300,9.0,-999.0,60,0.00,,,-99.99,,2013-01-17 00:42:00,
2013-01-16 16:51:00,57.0,47.0,30.22,NW,320,10.0,-999.0,69,0.00,,,-99.99,,2013-01-17 00:51:00,
2013-01-16 17:22:00,57.0,47.0,30.22,NW,320,10.0,-999.0,69,0.00,,,-99.99,,2013-01-17 01:22:00,
2013-01-16 17:32:00,57.0,47.0,30.22,NW,320,10.0,-999.0,69,0.00,,,-99.99,,2013-01-17 01:32:00,
2013-01-16 17:42:00,57.0,47.0,30.22,NW,320,10.0,-999.0,69,0.00,,,-99.99,,2013-01-17 01:42:00,
2013-01-16 17:51:00,57.0,41.0,30.23,NNW,340,9.0,-999.0,56,0.00,,,-99.99,,2013-01-17 01:51:00,
2013-01-16 18:22:00,57.0,41.0,30.23,NNW,340,9.0,-999.0,56,0.00,,,-99.99,,2013-01-17 02:22:00,
2013-01-16 18:32:00,57.0,41.0,30.23,NNW,340,9.0,-999.0,56,0.00,,,-99.99,,2013-01-17 02:32:00,
2013-01-16 18:42:00,57.0,41.0,30.23,NNW,340,9.0,-999.0,56,0.00,,,-99.99,,2013-01-17 02:42:00,
2013-01-16 18:51:00,59.0,34.0,30.23,NNW,340,6.0,-999.0,39,0.00,,,-99.99,,2013-01-17 02:51:00,
2013-01-16 19:22:00,59.0,34.0,30.23,NNW,340,6.0,-999.0,39,0.00,,,-99.99,,2013-01-17 03:22:00,
2013-01-16 19:32:00,59.0,34.0,30.23,NNW,340,6.0,-999.0,39,0.00,,,-99.99,,2013-01-17 03:32:00,
2013-01-16 19:42:00,59.0,34.0,30.23,NNW,340,6.0,-999.0,39,0.00,,,-99.99,,2013-01-17 03:42:00,
2013-01-16 19:51:00,56.0,42.0,30.23,North,0,0.0,-999.0,60,0.00,,,-99.99,,2013-01-17 03:51:00,
2013-01-16 20:22:00,56.0,42.0,30.23,North,0,0.0,-999.0,60,0.00,,,-99.99,,2013-01-17 04:22:00,
2013-01-16 20:32:00,56.0,42.0,30.23,North,0,0.0,-999.0,60,0.00,,,-99.99,,2013-01-17 04:32:00,
2013-01-16 20:42:00,56.0,42.0,30.23,North,0,0.0,-999.0,60,0.00,,,-99.99,,2013-01-17 04:42:00,
2013-01-16 20:51:00,54.0,45.0,30.22,North,0,0.0,-999.0,71,0.00,,,-99.99,,2013-01-17 04:51:00,
2013-01-16 21:22:00,54.0,45.0,30.22,North,0,0.0,-999.0,71,0.00,,,-99.99,,2013-01-17 05:22:00,
2013-01-16 21:32:00,54.0,45.0,30.22,North,0,0.0,-999.0,71,0.00,,,-99.99,,2013-01-17 05:32:00,
2013-01-16 21:42:00,54.0,45.0,30.22,North,0,0.0,-999.0,71,0.00,,,-99.99,,2013-01-17 05:42:00,
2013-01-16 21:51:00,55.0,44.0,30.20,North,0,0.0,-999.0,66,0.00,,,-99.99,,2013-01-17 05:51:00,
2013-01-16 22:22:00,55.0,44.0,30.20,North,0,0.0,-999.0,66,0.00,,,-99.99,,2013-01-17 06:22:00,
2013-01-16 22:32:00,55.0,44.0,30.20,North,0,0.0,-999.0,66,0.00,,,-99.99,,2013-01-17 06:32:00,
2013-01-16 22:42:00,55.0,44.0,30.20,North,0,0.0,-999.0,66,0.00,,,-99.99,,2013-01-17 06:42:00,
2013-01-16 22:51:00,55.0,36.0,30.19,North,10,4.0,-999.0,49,0.00,,,-99.99,,2013-01-17 06:51:00,
2013-01-16 23:22:00,55.0,36.0,30.19,North,10,4.0,-999.0,49,0.00,,,-99.99,,2013-01-17 07:22:00,
2013-01-16 23:32:00,55.0,36.0,30.19,North,10,4.0,-999.0,49,0.00,,,-99.99,,2013-01-17 07:32:00,
2013-01-16 23:42:00,55.0,36.0,30.19,North,10,4.0,-999.0,49,0.00,,,-99.99,,2013-01-17 07:42:00,
2013-01-16 23:51:00,54.0,39.0,30.18,North,0,0.0,-999.0,57,0.00,,,-99.99,,2013-01-17 07:51:00,